Location: Squamish
(49.7000°N, 123.1500°W)
Time: 01:39:09
(UTC-07:00)

Daily predictions for brighter satellites

Satellite Brightness Start Highest point End
(mag) Time Altitude Azimuth Time Altitude Azimuth Time Altitude Azimuth
Coronas F rocket 3.8 00:04:13 12° E 00:04:13 12° E 00:05:26 10° ENE
Cosmos 374 Rocket 4.5 00:05:38 10° NW 00:09:27 67° SW 00:11:41 28° SSE
ALOS 2 3.0 00:07:31 24° SE 00:09:54 53° ENE 00:14:12 10° N
Okean 1-7 3.1 00:06:09 10° NNW 00:10:26 69° W 00:12:38 27° S
Cosmos 1689 Rocket 3.5 00:09:16 24° ESE 00:10:34 34° ENE 00:13:36 10° N
Cosmos 1603 3.7 00:06:22 10° NNW 00:12:06 82° ENE 00:15:45 23° SSE
ATLAS 3B R/B 3.3 00:09:19 10° NW 00:15:52 43° WSW 00:19:45 22° S
Cosmos 2237 Rocket 4.2 00:23:27 10° WNW 00:27:00 17° W 00:30:32 10° SW
Cosmos 1892 3.1 00:27:25 33° SE 00:28:39 47° E 00:32:19 10° NNE
USA 238 DEB 3.8 00:21:42 10° NW 00:28:41 67° SW 00:33:10 24° SSE
USA 238 3.8 00:21:48 10° NW 00:28:47 67° SW 00:33:17 24° SSE
Cosmos 2251 Rocket 3.5 00:25:13 10° NNW 00:30:34 77° WSW 00:33:26 28° SSE
Cosmos 2084 Rocket 3.6 00:34:00 36° SSE 00:34:43 40° SE 00:38:19 10° NE
Cosmos 1674 Rocket 3.7 00:33:36 10° N 00:38:02 67° ENE 00:40:06 30° SSE
Cosmos 921 Rocket 3.9 00:38:49 27° SE 00:40:02 33° E 00:43:51 10° NE
Cosmos 44 4.1 00:38:48 28° SSE 00:40:58 41° ESE 00:46:03 10° NE
NOSS 2-3 (E) 4.0 00:37:14 18° SW 00:41:05 81° SE 00:47:06 10° NE
Cosmos 389 Rocket 4.0 00:39:06 10° NW 00:42:11 27° W 00:43:29 21° SW
SL-08 ROCKET BODY 4.4 00:39:18 25° S 00:43:11 88° E 00:49:22 10° N
H-2A R/B 4.4 00:40:30 10° WSW 00:43:21 14° W 00:46:13 10° NW
Cosmos 1238 Rocket 3.5 00:41:44 10° N 00:45:37 40° ENE 00:47:00 27° ESE
CZ-4B R/B 1.4 00:44:39 43° S 00:45:40 80° WSW 00:49:04 10° NNW
Lacrosse 4 Rocket 3.4 00:43:03 10° WNW 00:46:06 18° WSW 00:47:34 16° SW
Cosmos 494 Rocket 4.0 00:42:11 10° NNW 00:47:28 79° WSW 00:50:13 29° SSE
SeaSat 1 3.1 00:46:00 27° SSW 00:48:10 42° WSW 00:52:53 10° NW
CENTAUR R/B 4.2 00:42:11 10° NW 00:49:06 40° NNE 00:56:38 10° E
Cosmos 1975 Rocket 4.4 00:45:22 10° N 00:49:18 31° ENE 00:51:47 18° ESE
Cosmos 1825 3.9 00:48:13 18° ESE 00:49:25 21° E 00:52:17 10° NE
Nadezhda 3 Rocket 4.0 00:43:38 10° N 00:49:53 78° E 00:53:39 26° SSE
Cosmos 1356 Rocket 3.5 00:50:10 35° SSE 00:51:36 58° E 00:55:39 10° NNE
Cosmos 1867 3.9 00:47:20 10° NW 00:52:49 64° NE 00:57:23 15° SE
Cosmos 1607 3.9 00:47:02 10° NW 00:53:07 66° WSW 00:56:39 26° SSE
Cosmos 2074 Rocket 4.2 00:48:52 22° SSW 00:53:09 70° WNW 00:59:29 10° N
Meteor 2-3 Rocket 3.9 00:49:46 22° SSW 00:53:32 70° WNW 00:59:14 10° N
ASTEX 1 3.3 00:49:02 10° N 00:53:57 87° W 00:56:27 30° S
Cosmos 1610 Rocket 4.4 00:50:16 26° S 00:53:58 87° E 01:00:09 10° N
USA 234 3.9 00:50:00 10° E 00:56:22 57° NNE 01:02:46 10° WNW
CZ-2C R/B 4.0 00:53:46 17° SE 00:57:52 45° ENE 01:03:06 10° N
Meteor 1-10 Rocket 4.4 00:54:19 10° NNW 01:00:16 75° W 01:03:36 27° S
Cosmos 1908 Rocket 4.1 00:59:02 30° SE 01:00:43 45° E 01:04:52 10° NNE
NOSS 3-2 (C) 4.0 00:54:57 10° NW 01:02:19 86° NE 01:09:36 13° SE
GEOS 3 Rocket 4.0 01:00:39 29° S 01:02:58 47° SW 01:07:59 10° NW
NOSS 2-3 (C) 4.4 01:03:47 12° SW 01:08:30 72° NW 01:14:40 10° NE
Cosmos 2227 Rocket 4.3 01:06:35 10° W 01:11:11 25° NW 01:15:48 10° NNE
Okean 3 3.9 01:07:18 10° N 01:11:34 57° ENE 01:13:36 29° SE
Meteor 2-10 Rocket 4.2 01:06:28 10° NNW 01:11:50 49° W 01:14:53 25° SSW
Cosmos 2263 Rocket 3.2 01:09:40 23° SSE 01:12:06 33° ESE 01:17:06 10° NE
ERBS 4.2 01:10:13 10° W 01:13:25 33° NNW 01:16:38 10° NE
Cosmos 1782 3.1 01:10:07 10° NNW 01:14:02 56° W 01:15:24 35° SSW
Landsat 5 4.2 01:14:41 30° SSW 01:16:33 48° W 01:20:58 10° NNW
MOS 1-B Rocket 3.8 01:15:53 27° S 01:19:04 79° WSW 01:24:45 10° NNW
H-2A R/B 3.0 01:16:03 10° N 01:20:10 54° WNW 01:22:26 25° SW
SL-16 R/B 4.3 01:18:27 10° WNW 01:21:11 14° W 01:23:49 10° SW
ATLAS 5 CENTAUR R/B 4.3 01:18:24 10° NW 01:23:15 28° NNE 01:28:27 10° E
Cosmos 1340 Rocket 3.5 01:21:49 26° SW 01:23:36 44° WNW 01:27:24 10° N
Cosmos 2154 Rocket 4.0 01:20:20 26° SSW 01:24:10 80° W 01:30:29 10° N
NOSS 3-2 (A) 4.0 01:17:14 10° NW 01:24:32 68° SW 01:30:20 20° SSE
Cosmos 44 Rocket 4.0 01:19:53 11° WSW 01:24:49 56° NW 01:30:01 10° NE
CZ-4C R/B 3.0 01:20:23 10° NW 01:27:12 57° WSW 01:31:59 23° SSE
BREEZE-M DEB (TANK) 4.4 01:23:20 10° WSW 01:27:45 77° SSE 01:45:08 10° ENE
NOSS 3-4 (A) 3.9 01:25:33 27° S 01:28:47 48° ESE 01:35:05 10° NE
NOSS 3-4 (C) 3.9 01:25:39 27° S 01:28:52 47° ESE 01:35:10 10° NE
CZ-2C R/B 2.6 01:23:58 10° NNE 01:29:12 70° ESE 01:31:50 29° S
Cosmos 1733 Rocket 3.8 01:28:31 24° SW 01:30:49 45° WNW 01:35:08 10° N
Helios 1A Rocket 3.1 01:28:27 10° N 01:32:37 71° WNW 01:34:29 32° SSW
COSMOS 2406 4.1 01:28:43 10° NNW 01:34:20 48° NE 01:39:54 10° SE
Coronas F rocket 2.8 01:35:19 25° W 01:35:46 27° WNW 01:38:09 10° NNW
Sich 1 Rocket 3.8 01:33:58 30° SSW 01:36:05 64° WNW 01:40:37 10° N
Cosmos 2297 Rocket 4.4 01:33:42 10° W 01:38:07 23° NW 01:42:32 10° NNE
Cosmos 1378 Rocket 3.7 01:34:19 10° NNW 01:38:39 60° W 01:40:24 33° SSW
Cosmos 1689 Rocket 4.3 01:42:19 16° WSW 01:42:53 17° W 01:45:08 10° NW
Cosmos 1606 3.4 01:40:12 10° NNW 01:43:53 43° W 01:45:06 32° SW
Cosmos 1943 3.6 01:38:33 10° NW 01:44:00 48° WSW 01:46:41 28° SSW
ALOS 2 4.4 01:44:54 16° WSW 01:46:33 19° W 01:49:45 10° NW
RESURS DK-1 3.3 01:45:42 28° SSE 01:47:00 35° ESE 01:50:49 10° NE
Abrixas rocket 3.9 01:50:31 21° ESE 01:50:31 21° ESE 01:52:16 10° E
Cosmos 407 Rocket 4.2 01:44:33 10° NNW 01:49:35 50° ENE 01:54:25 11° SE
Cosmos 2056 Rocket 4.5 01:48:29 22° SSE 01:51:08 36° ESE 01:55:53 10° NE
Meteor 1-27 Rocket 4.3 01:48:29 10° NNW 01:54:03 47° W 01:57:05 25° SSW
Meteor 2-13 Rocket 4.4 01:51:32 26° SSW 01:55:12 85° W 02:01:24 10° N
ATLAS 2AS CENTAUR R/B 4.4 01:51:31 10° W 01:58:52 40° NNW 02:06:30 10° NE
Cosmos 2341 Rocket 4.4 01:55:17 22° SSW 01:59:23 57° WNW 02:05:41 10° N
SL-27 R/B 3.8 01:56:38 10° N 02:00:06 38° ENE 02:02:56 14° SE
Cosmos 1959 Rocket 4.5 01:57:51 25° S 02:01:42 83° E 02:07:56 10° N
Cosmos 1862 3.8 02:01:36 29° SW 02:03:19 51° WNW 02:07:16 10° N
Geosat 4.1 01:59:15 10° NNE 02:04:17 73° WNW 02:07:32 22° SW
Cosmos 1408 3.0 02:04:33 32° SW 02:06:01 56° WNW 02:09:44 10° N
PSLV R/B 4.1 02:06:08 33° SSW 02:07:44 56° W 02:11:45 10° NNW
SL-8 Rocket 4.1 02:04:42 25° SSW 02:08:39 77° W 02:15:01 10° N
Cosmos 1782 Rocket 3.8 02:07:28 29° SSW 02:09:33 61° WNW 02:13:57 10° N
Cosmos 1339 Rocket 4.5 02:05:11 10° N 02:11:19 82° E 02:15:39 20° SSE
Okean 2 Rocket 3.2 02:09:50 29° SSW 02:12:04 69° W 02:16:35 10° N
Meteor 1-14 Rocket 4.5 02:08:57 24° S 02:12:40 69° E 02:18:30 10° NNE
Meteor 2-8 Rocket 4.4 02:07:22 10° N 02:13:30 89° W 02:17:43 21° S
Iridium 4 Rocket 3.6 02:11:59 10° N 02:16:39 68° E 02:20:00 21° SSE
BREEZE-M DEB (TANK) 4.4 02:15:05 10° W 02:17:08 14° WSW 02:17:08 14° WSW
Cosmos 921 Rocket 4.5 02:15:36 15° WSW 02:18:22 29° WNW 02:22:05 10° N
Cosmos 1184 Rocket 2.7 02:18:50 38° SSW 02:20:00 87° WNW 02:23:23 10° NNE
Cosmos 2218 Rocket 4.1 02:16:45 24° SSW 02:20:46 75° W 02:27:11 10° N
Cosmos 44 4.4 02:17:12 11° WSW 02:22:14 47° NW 02:27:32 10° NNE
Cosmos 1825 3.3 02:23:09 23° WSW 02:24:51 34° WNW 02:28:22 10° N
Cosmos 1975 Rocket 4.2 02:23:19 10° NNW 02:27:08 30° W 02:28:55 22° SW
Cosmos 1812 3.0 02:28:32 10° N 02:32:26 65° ENE 02:34:59 20° SSE
Meteor 1-18 Rocket 4.2 02:26:59 10° NNW 02:32:41 86° W 02:36:58 19° S
Cosmos 2366 rocket 4.1 02:28:48 23° SSW 02:32:50 70° WNW 02:39:04 10° N
Cosmos 1624 Rocket 4.0 02:31:55 24° SSW 02:35:06 85° ESE 02:40:24 10° NNE
USA 161 4.4 02:34:35 10° ESE 02:36:24 15° ENE 02:38:15 10° NNE
CZ-2C R/B 4.2 02:34:50 21° SW 02:37:49 34° W 02:42:51 10° NNW
Cosmos 1536 Rocket 3.6 02:34:55 10° NNW 02:39:15 64° W 02:41:45 25° S
USA 234 3.2 02:32:46 10° SE 02:39:18 74° SW 02:45:52 10° WNW
Cosmos 1242 Rocket 3.1 02:36:35 10° NNW 02:39:54 40° W 02:41:06 29° SW
CENTAUR R/B 3.0 02:32:57 10° NW 02:40:38 85° SW 02:48:55 10° SE
Gbstr 26 Del rocket 4.3 02:42:49 19° SSE 02:43:46 21° SE 02:46:42 10° E
Cosmos 909 Rocket 4.3 02:40:30 21° SSW 02:45:09 77° ESE 02:52:55 10° NE
Meteor 1-20 Rocket 4.4 02:45:26 19° S 02:49:45 71° E 02:55:30 10° NNE
Cosmos 1727 Rocket 4.5 02:45:16 10° NNW 02:51:09 45° W 02:55:12 19° SSW
Cosmos 1844 Rocket 3.4 02:48:15 17° S 02:52:16 45° ESE 02:57:39 10° NE
CRYOSAT 2 4.5 02:47:48 10° N 02:52:37 65° W 02:55:46 21° SSW
ARIANE 5 R/B 4.5 02:49:17 10° NE 02:53:05 21° E 02:56:52 10° SE
Cosmos 2263 Rocket 2.8 02:51:21 15° SW 02:55:50 50° NW 03:01:23 10° NNE
Cosmos 1452 Rocket 3.9 02:53:05 18° S 02:56:49 56° ESE 03:01:58 10° NNE
IRS-P3 4.3 02:53:37 10° NNE 02:58:59 73° ESE 03:03:05 18° S
Resurs 1-4 Rocket 4.2 02:58:39 10° NE 03:02:38 21° E 03:06:35 10° SE
Meteor 1-13 Rocket 4.4 02:57:04 10° N 03:02:47 79° ENE 03:08:34 10° SSE
CBERS-1 4.4 02:58:31 10° NNE 03:03:37 58° E 03:07:50 15° S
Okean 1 3.3 02:59:47 10° NNW 03:03:46 65° W 03:06:25 20° S
PSLV R/B 3.7 02:59:52 10° N 03:04:03 61° WNW 03:06:46 21° SSW
SL-24 DEB 4.2 03:01:52 10° N 03:06:33 89° E 03:10:08 17° S
Cosmos 1844 4.5 03:02:30 15° S 03:06:57 44° ESE 03:12:24 10° NE
ATLAS 5 CENTAUR R/B 2.5 03:02:58 10° NW 03:08:48 77° NE 03:15:08 10° SE
COSMOS 2487 2.8 03:05:14 10° NNW 03:08:51 67° ENE 03:12:28 10° SSE
CZ-2C R/B 4.4 03:05:07 10° N 03:08:59 21° WNW 03:12:49 10° WSW
Cosmos 2151 Rocket 4.4 03:08:40 18° SW 03:11:30 39° WNW 03:15:45 10° N
Cosmos 1633 4.4 03:09:23 10° SSE 03:12:28 26° E 03:15:34 10° NNE
Cosmos 1140 Rocket 3.4 03:08:25 10° NNW 03:13:36 88° WSW 03:18:44 10° SSE
ADEOS 4.2 03:08:49 10° NNE 03:13:56 50° E 03:18:46 11° S
Okean 1-7 Rocket 3.7 03:09:40 10° NNW 03:14:13 67° W 03:17:55 15° S
Okean 1 Rocket 3.1 03:12:42 18° S 03:15:59 88° WNW 03:20:30 10° N
COSMOS 2406 4.0 03:13:20 10° NW 03:18:31 35° WSW 03:22:34 15° SSW
Cosmos 1934 Rocket 4.1 03:13:45 12° S 03:19:27 75° E 03:25:35 10° NNE
Cosmos 2278 Rocket 3.2 03:14:34 11° S 03:19:32 38° ESE 03:24:45 10° NE
NOSS 3-4 (A) 4.3 03:13:26 10° WSW 03:19:43 51° NW 03:26:17 10° NE
NOSS 3-4 (C) 4.3 03:13:31 10° WSW 03:19:48 51° NW 03:26:22 10° NE
RESURS DK-1 3.7 03:21:37 11° WSW 03:25:07 31° NW 03:28:52 10° NNE
Abrixas rocket 2.2 03:23:27 14° WSW 03:26:14 62° S 03:29:33 10° E
NOSS 2-2 (D) 4.5 03:23:35 15° S 03:26:43 40° ESE 03:31:22 10° NE
Cosmos 1602 4.0 03:24:16 14° S 03:27:29 67° E 03:31:20 10° NNE
Okean O Rocket 4.3 03:26:51 10° ENE 03:28:42 12° E 03:30:32 10° ESE
Cosmos 1025 Rocket 3.0 03:24:55 10° N 03:29:14 88° ENE 03:33:33 10° S
Timation 2 Rocket 4.0 03:23:54 10° NNW 03:30:09 82° ENE 03:36:11 10° SSE
Cosmos 2056 Rocket 4.4 03:28:49 13° SW 03:33:15 39° WNW 03:38:09 10° NNE
Cosmos 2082 Rocket 3.1 03:27:59 10° NNW 03:33:37 53° NE 03:39:11 10° SE
Cosmos 1850 Rocket 4.0 03:28:57 10° NNW 03:34:12 78° WSW 03:39:28 10° SSE
SL-27 R/B 4.2 03:32:30 10° NW 03:35:09 19° W 03:36:38 15° SW
Cosmos 1741 Rocket 4.0 03:32:00 10° NNW 03:37:19 76° WSW 03:42:33 10° SSE
GP-B 3.5 03:33:59 10° N 03:38:16 48° W 03:41:53 14° SSW
Cosmos 1455 Rocket 4.5 03:34:54 10° SSE 03:38:58 35° E 03:43:02 10° NNE
NOSS 2-2 (C) 4.1 03:37:38 14° SSW 03:41:04 53° SE 03:45:59 10° NE
Spot 4 Rocket 4.2 03:38:56 10° NNE 03:44:07 77° ESE 03:49:17 10° S
Meteor 2-14 Rocket 4.5 03:38:46 11° S 03:44:41 86° WNW 03:50:49 10° N
SL-08 R/B 4.1 03:41:17 13° SSW 03:45:15 36° W 03:49:46 10° NNW
Meteor 2-4 Rocket 3.6 03:41:01 10° NNW 03:46:28 87° W 03:51:49 10° S
NPP 4.0 03:44:56 10° N 03:50:10 54° WNW 03:55:08 11° SW
ERS-2 2.6 03:48:09 10° N 03:51:47 49° WNW 03:54:58 13° SW
AQUA 4.2 03:49:56 10° N 03:54:34 52° WNW 03:58:58 11° SW
Cosmos 2123 Rocket 4.3 03:51:20 10° NNW 03:57:30 56° W 04:03:38 10° SSW
Cosmos 1605 Rocket 4.0 03:51:19 10° S 03:57:32 83° W 04:03:53 10° N
Cosmos 1821 Rocket 4.4 03:52:52 11° SSW 03:58:51 53° WNW 04:05:07 10° N
UNKNOWN OBJECT B 4.2 03:55:28 10° NNE 03:59:19 38° E 04:03:08 10° SSE
SL-16 R/B 2.6 03:53:21 10° SSE 03:59:36 80° WSW 04:05:52 10° NNW
Okean 2 3.4 03:55:54 10° N 04:00:01 86° W 04:04:08 10° S
BREEZE-M DEB (TANK) 4.2 03:59:05 10° W 04:03:42 75° SSW 04:23:46 10° ESE
IRS-1D 3.7 03:58:35 10° NNE 04:03:42 74° ESE 04:08:41 10° S
Cosmos 1544 Rocket 3.6 04:00:16 10° S 04:04:41 85° E 04:09:06 10° N
CZ-2D R/B 2.6 04:00:30 10° NNE 04:05:56 65° ESE 04:11:23 10° S
NOSS 2-2 (E) 3.8 04:01:59 11° SW 04:06:10 88° SE 04:11:32 10° NE
OPS 6432 4.5 04:03:18 11° SSW 04:06:20 60° SE 04:09:26 10° NE
USA 161 2.5 04:04:00 11° SSW 04:06:32 31° W 04:09:16 10° NNW
Cosmos 1536 3.0 04:02:35 10° SSW 04:06:37 63° WNW 04:10:40 10° N
Cosmos 614 Rocket 4.2 04:02:32 10° NNW 04:07:31 48° WSW 04:12:25 10° S
MTI 4.1 04:04:18 10° SSE 04:07:36 74° ENE 04:10:55 10° N
Cosmos 1833 Rocket 2.9 04:07:49 10° NNW 04:13:28 78° ENE 04:19:05 10° SSE
BREEZE-M DEB (TANK) 2.3 04:12:21 10° W 04:18:58 88° S 04:21:31 10° E
SME Rocket 3.2 04:17:07 10° S 04:20:50 55° WSW 04:25:24 10° NNW
USA 234 4.2 04:17:54 10° S 04:23:03 25° SW 04:28:14 10° WNW
EO 1 Del DPAF 3.7 04:19:37 10° S 04:23:22 45° W 04:27:08 10° NNW
Cosmos 1892 Rocket 4.2 04:19:53 10° NNW 04:23:57 39° W 04:27:57 10° SSW
Cosmos 1174 3.7 04:21:12 10° NW 04:24:58 49° WSW 04:28:06 10° SSE
Cosmos 1486 Rocket 4.4 04:21:54 10° NNW 04:27:15 75° ENE 04:32:35 10° SSE
ERBS 3.7 04:25:06 10° NW 04:28:27 44° NNE 04:31:46 10° E
Gbstr 26 Del rocket 2.6 04:26:18 10° WSW 04:30:12 80° SSE 04:33:57 10° ENE
CENTAUR R/B 4.0 04:24:32 10° WNW 04:30:39 25° WSW 04:37:00 10° SSW
UNK 3.8 04:25:48 10° SW 04:31:49 36° SSE 04:34:21 10° E
Cosmos 2173 Rocket 4.2 04:26:55 10° S 04:33:01 77° E 04:39:14 10° NNE
